Location: St Paul
(33.9360°N, 83.4200°W)
Time: 13:54:56
(UTC-05:00)

SL-16 R/B - Pass Details

Date: 06 October 2017
Orbit: 842 x 846 km, 71.0° (Epoch: 15 December)

Event Time Altitude Azimuth Distance (km) Brightness Sun altitude
Rises 21:11:34 0° 346° (NNW) 3,407 5.7 -25.8°
Reaches altitude 10° 21:14:08 10° 352° (N) 2,470 4.8 -26.3°
Enters shadow 21:17:45 34° 20° (NNE) 1,350 3.1 -27.0°
